This is the latest recevied weather packets stored in our database for station/object OM3WYM-13. If no packets are shown the sender has not sent any weather packets the latest 10 day(s).
| Time | Temp. | Humidity | Pressure | Rain* | Wind** | Luminosity | Snow |
|---|---|---|---|---|---|---|---|
| 1778092808 | 20° C | 45% | 1009.2 hPa | - | - | - | - |
| 1778092208 | 20° C | 45% | 1009 hPa | - | - | - | - |
| 1778091608 | 20° C | 46% | 1009 hPa | - | - | - | - |
| 1778091008 | 20° C | 45% | 1008.9 hPa | - | - | - | - |
| 1778090408 | 20.56° C | 43% | 1008.7 hPa | - | - | - | - |
| 1778089808 | 21.11° C | 42% | 1008.6 hPa | - | - | - | - |
| 1778089208 | 21.11° C | 42% | 1008.6 hPa | - | - | - | - |
| 1778088608 | 21.67° C | 41% | 1008.6 hPa | - | - | - | - |
| 1778088008 | 22.22° C | 40% | 1008.6 hPa | - | - | - | - |
| 1778087408 | 22.78° C | 38% | 1008.6 hPa | - | - | - | - |
| 1778086808 | 22.78° C | 38% | 1008.5 hPa | - | - | - | - |
| 1778086208 | 23.33° C | 36% | 1008.5 hPa | - | - | - | - |
| 1778085608 | 23.89° C | 35% | 1008.5 hPa | - | - | - | - |
| 1778085008 | 23.89° C | 34% | 1008.6 hPa | - | - | - | - |
| 1778084408 | 24.44° C | 34% | 1008.5 hPa | - | - | - | - |
| 1778083808 | 25° C | 33% | 1008.5 hPa | - | - | - | - |
| 1778083208 | 24.44° C | 32% | 1008.6 hPa | - | - | - | - |
| 1778082608 | 25° C | 32% | 1008.6 hPa | - | - | - | - |
| 1778082008 | 25.56° C | 31% | 1008.5 hPa | - | - | - | - |
| 1778081408 | 25° C | 32% | 1008.4 hPa | - | - | - | - |
| 1778080808 | 25° C | 31% | 1008.4 hPa | - | - | - | - |
| 1778080208 | 25.56° C | 31% | 1008.5 hPa | - | - | - | - |
| 1778079608 | 26.11° C | 30% | 1008.5 hPa | - | - | - | - |
| 1778079008 | 27.78° C | 27% | 1008.3 hPa | - | - | - | - |
| 1778078408 | 27.78° C | 27% | 1008.5 hPa | - | - | - | - |
* Rain since midnight (hover to see other rain measurements)
** Current wind speed in m/s (hover to see current wind gust speed)